Location: Burleson Fire Department Station 2
(32.5391°N, 97.3075°W)
Time: 05:25:25
(UTC+00:00)

NOAA 15 - Visible Passes

Search period start: 14 December 2025 00:00
Search period end: 24 December 2025 00:00
Orbit: 794 x 809 km, 98.5° (Epoch: 13 December)

Date Brightness Start Highest point End Pass type
(mag) Time Alt. Az. Time Alt. Az. Time Alt. Az.
14 Dec 4.8 00:35:12 10° SE 00:40:12 45° ENE 00:45:13 10° N visible
14 Dec 7.2 02:16:38 10° SW 02:20:04 17° W 02:23:29 10° NW visible
14 Dec 7.2 12:54:48 10° NE 12:59:03 25° E 13:03:16 10° SSE visible
15 Dec 5.5 00:09:57 10° ESE 00:14:12 25° ENE 00:18:28 10° NNE visible
15 Dec 6.3 01:49:03 10° SSW 01:53:43 32° W 01:58:24 10° NW visible
15 Dec 7.7 12:30:17 10° ENE 12:32:39 13° E 12:35:02 10° ESE visible
16 Dec 5.1 01:22:15 10° S 01:27:27 60° W 01:32:40 10° NNW visible
17 Dec 4.5 00:56:02 10° SSE 01:01:17 75° ENE 01:06:34 10° N visible
18 Dec 4.9 00:30:18 10° SE 00:35:12 40° ENE 00:40:07 10° N visible
18 Dec 7.0 02:11:16 10° SW 02:14:59 19° W 02:18:44 10° NW visible
18 Dec 7.3 12:49:58 10° NE 12:53:59 22° E 12:57:59 10° SE visible
19 Dec 5.6 00:05:11 10° ESE 00:09:14 23° ENE 00:13:15 10° NNE visible
19 Dec 6.1 01:43:52 10° SSW 01:48:40 36° W 01:53:30 10° NNW visible
19 Dec 7.9 12:25:55 10° ENE 12:27:34 11° E 12:29:14 10° ESE visible
20 Dec 4.9 01:17:11 10° S 01:22:26 67° WSW 01:27:40 10° NNW visible
21 Dec 4.5 00:51:03 10° SSE 00:56:16 67° ENE 01:01:30 10° N visible
21 Dec 7.6 02:34:48 10° WSW 02:36:20 11° W 02:37:54 10° WNW visible
22 Dec 5.1 00:25:26 10° SE 00:30:12 36° ENE 00:34:59 10° N visible
22 Dec 6.9 02:05:56 10° SW 02:09:56 22° W 02:13:56 10° NW visible
22 Dec 7.4 12:45:10 10° NE 12:48:54 20° E 12:52:39 10° SE visible
23 Dec 5.8 00:00:27 10° ESE 00:04:15 20° ENE 00:08:01 10° NNE visible
23 Dec 5.9 01:38:42 10° SSW 01:43:37 40° W 01:48:33 10° NNW visible
